FW9262 Weather Reports


time (UTC)temp
F
wind
direction
speed
knots
gust
knots
rain 1hr
in
rain 24hr
in
rain mn
in
humidity
%
barometer
mb
20260902194536 77 171 3.5 5.2 0.00 0.00 0.00 62 1018.7
20260902194032 77 266 1.7 2.6 0.00 0.00 0.00 63 1019.0
20260902193528 76 246 3.5 6.1 0.00 0.00 0.00 64 1018.7
20260902193027 77 180 1.7 5.2 0.00 0.00 0.00 64 1019.0
20260902192526 76 249 2.6 5.2 0.00 0.00 0.00 65 1018.7
20260902192025 78 211 1.7 3.5 0.00 0.00 0.00 62 1019.0
20260902191520 76 282 5.2 6.1 0.00 0.00 0.00 65 1019.0
20260902191015 77 193 1.7 5.2 0.00 0.00 0.00 65 1019.0
20260902190510 77 254 1.7 3.5 0.00 0.00 0.00 65 1019.0
20260902190006 77 120 2.6 7.0 0.00 0.00 0.00 65 1019.0
20260902185502 78 236 1.7 3.5 0.00 0.00 0.00 64 1019.3
20260902184956 78 339 0.9 3.5 0.00 0.00 0.00 65 1019.3
20260902184452 77 298 1.7 3.5 0.00 0.00 0.00 66 1019.3
20260902183947 77 265 1.7 6.1 0.00 0.00 0.00 66 1019.3
20260902183443 78 210 1.7 2.6 0.00 0.00 0.00 64 1019.3
20260902182939 78 316 1.7 3.5 0.00 0.00 0.00 64 1019.3
20260902182435 76 228 1.7 2.6 0.00 0.00 0.00 67 1019.3
20260902181931 77 279 4.3 5.2 0.00 0.00 0.00 65 1019.3
20260902181426 77 280 4.3 5.2 0.00 0.00 0.00 65 1019.3
20260902180921 77 240 0.9 3.5 0.00 0.00 0.00 64 1019.3
20260902180416 77 239 0.9 1.7 0.00 0.00 0.00 65 1019.3
20260902175912 76 311 1.7 2.6 0.00 0.00 0.00 66 1019.3
20260902175407 76 92 1.7 3.5 0.00 0.00 0.00 66 1019.3
20260902174902 76 226 1.7 2.6 0.00 0.00 0.00 66 1019.3
20260902174400 76 218 1.7 3.5 0.00 0.00 0.00 66 1019.3
20260902173855 77 198 1.7 3.5 0.00 0.00 0.00 66 1019.0
20260902173354 76 328 0.0 0.9 0.00 0.00 0.00 66 1019.3
20260902172849 75 264 1.7 2.6 0.00 0.00 0.00 67 1019.3
20260902172348 75 201 2.6 5.2 0.00 0.00 0.00 68 1019.3
20260902171844 75 132 1.7 2.6 0.00 0.00 0.00 66 1019.3
20260902171339 75 161 0.9 2.6 0.00 0.00 0.00 68 1019.3
20260902170835 75 145 1.7 2.6 0.00 0.00 0.00 68 1019.3
20260902170330 74 299 0.9 1.7 0.00 0.00 0.00 70 1019.3
20260902165826 75 289 1.7 2.6 0.00 0.00 0.00 68 1019.0
20260902165325 77 199 1.7 1.7 0.00 0.00 0.00 65 1019.0
20260902164819 75 352 0.0 0.9 0.00 0.00 0.00 66 1019.0
20260902164314 75 61 0.9 2.6 0.00 0.00 0.00 67 1019.0
20260902163808 75 39 0.9 2.6 0.00 0.00 0.00 66 1019.0
20260902163303 75 317 0.9 3.5 0.00 0.00 0.00 66 1019.0
20260902162802 75 101 1.7 1.7 0.00 0.00 0.00 66 1019.0
20260902162256 75 354 0.9 3.5 0.00 0.00 0.00 67 1019.0
20260902161756 74 350 0.0 1.7 0.00 0.00 0.00 68 1019.0
20260902161252 73 32 0.9 1.7 0.00 0.00 0.00 71 1019.0
20260902160748 74 353 1.7 2.6 0.00 0.00 0.00 68 1019.3
20260902160243 74 335 0.0 0.9 0.00 0.00 0.00 68 1019.0
20260902155741 73 10 0.0 0.9 0.00 0.00 0.00 70 1019.0
20260902155240 73 339 0.9 0.9 0.00 0.00 0.00 70 1019.0
20260902154735 73 347 0.0 0.9 0.00 0.00 0.00 69 1019.0
20260902154231 74 273 0.9 0.9 0.00 0.00 0.00 70 1019.0
20260902153730 73 330 0.9 0.9 0.00 0.00 0.00 71 1019.0
20260902153230 73 49 0.9 1.7 0.00 0.00 0.00 71 1019.0
20260902152726 72 51 0.0 0.9 0.00 0.00 0.00 72 1019.0
20260902152221 73 314 0.0 0.0 0.00 0.00 0.00 71 1018.7
20260902151717 73 351 0.0 0.9 0.00 0.00 0.00 71 1018.7
20260902151212 72 8 0.0 0.9 0.00 0.00 0.00 72 1018.7
20260902150707 73 36 0.9 0.9 0.00 0.00 0.00 71 1019.0
20260902150203 72 358 0.9 0.9 0.00 0.00 0.00 74 1019.0
20260902145702 71 27 0.0 0.9 0.00 0.00 0.00 75 1018.7
20260902145201 71 0 0.9 0.9 0.00 0.00 0.00 75 1018.7
20260902144658 72 346 0.0 0.9 0.00 0.00 0.00 74 1018.7
20260902144153 71 350 0.0 0.9 0.00 0.00 0.00 78 1018.7
20260902143648 69 347 0.0 0.0 0.00 0.00 0.00 85 1019.0
20260902143143 68 347 0.0 0.0 0.00 0.00 0.00 87 1019.0
20260902142639 68 346 0.0 0.0 0.00 0.00 0.00 89 1018.7
20260902142135 67 345 0.0 0.0 0.00 0.00 0.00 90 1018.7
20260902141634 66 345 0.0 0.0 0.00 0.00 0.00 91 1019.0
20260902141130 65 344 0.0 0.0 0.00 0.00 0.00 91 1018.7
20260902140625 63 341 0.0 0.0 0.00 0.00 0.00 91 1018.7
20260902140120 64 341 0.0 0.0 0.00 0.00 0.00 92 1018.3
20260902135619 63 344 0.0 0.0 0.00 0.00 0.00 92 1018.3
20260902135114 62 345 0.0 0.0 0.00 0.00 0.00 92 1018.3
20260902134610 62 339 0.0 0.0 0.00 0.00 0.00 92 1018.3
20260902134110 61 336 0.0 0.0 0.00 0.00 0.00 92 1018.3
20260902133605 61 343 0.0 0.0 0.00 0.00 0.00 92 1018.3
20260902133105 61 343 0.0 0.0 0.00 0.00 0.00 92 1018.0
20260902132600 61 339 0.0 0.0 0.00 0.00 0.00 91 1018.0
20260902132055 61 340 0.0 0.0 0.00 0.00 0.00 91 1018.3
20260902131552 61 343 0.0 0.0 0.00 0.00 0.00 91 1018.0
20260902131052 61 330 0.0 0.0 0.00 0.00 0.00 91 1018.0
20260902130547 61 341 0.0 0.0 0.00 0.00 0.00 91 1018.0
20260902130042 61 329 0.0 0.9 0.00 0.00 0.00 91 1018.0
20260902125539 61 334 0.0 0.0 0.00 0.00 0.00 91 1018.3
20260902125034 61 341 0.0 0.0 0.00 0.00 0.00 91 1018.3
20260902124531 61 341 0.0 0.0 0.00 0.00 0.00 91 1018.3
20260902124031 61 340 0.0 0.0 0.00 0.00 0.00 91 1018.3
20260902123527 62 345 0.0 0.0 0.00 0.00 0.00 90 1018.0
20260902123026 62 335 0.0 0.0 0.00 0.00 0.00 90 1018.0
20260902122526 62 337 0.0 0.0 0.00 0.00 0.00 90 1018.0
20260902122021 62 348 0.0 0.0 0.00 0.00 0.00 90 1018.3
20260902121516 62 336 0.0 0.0 0.00 0.00 0.00 90 1018.3
20260902121011 62 340 0.0 0.0 0.00 0.00 0.00 90 1018.0
20260902120507 62 344 0.0 0.0 0.00 0.00 0.00 90 1018.0
20260902120003 62 334 0.0 0.0 0.00 0.00 0.00 90 1018.3
20260902115458 62 341 0.0 0.0 0.00 0.00 0.00 90 1018.3
20260902114954 62 339 0.0 0.0 0.00 0.00 0.00 90 1018.3
20260902114449 62 343 0.0 0.0 0.00 0.00 0.00 90 1018.3
20260902113944 62 340 0.0 0.0 0.00 0.00 0.00 90 1018.3
20260902113440 62 341 0.0 0.0 0.00 0.00 0.00 91 1018.3
20260902112939 62 339 0.0 0.0 0.00 0.00 0.00 91 1018.3
20260902112436 62 337 0.0 0.9 0.00 0.00 0.00 91 1018.3
20260902111932 62 339 0.0 0.0 0.00 0.00 0.00 91 1018.3
20260902111428 62 343 0.0 0.0 0.00 0.00 0.00 90 1018.3
20260902110924 62 336 0.0 0.0 0.00 0.00 0.00 90 1018.3
20260902110420 62 341 0.0 0.0 0.00 0.00 0.00 90 1018.3
20260902105914 62 341 0.0 0.0 0.00 0.00 0.00 90 1018.7
20260902105409 62 334 0.0 0.0 0.00 0.00 0.00 90 1018.3
20260902104904 62 343 0.0 0.0 0.00 0.00 0.00 90 1018.7
20260902104400 62 349 0.0 0.0 0.00 0.00 0.00 90 1018.3
20260902103859 62 345 0.0 0.0 0.00 0.00 0.00 90 1018.7
20260902103354 62 339 0.0 0.0 0.00 0.00 0.00 90 1018.3
20260902102849 63 343 0.0 0.0 0.00 0.00 0.00 90 1018.3
20260902102348 63 338 0.0 0.0 0.00 0.00 0.00 90 1018.3
20260902101843 63 337 0.0 0.0 0.00 0.00 0.00 90 1018.3
20260902101337 64 336 0.0 0.0 0.00 0.00 0.00 90 1018.0
20260902100837 63 337 0.0 0.0 0.00 0.00 0.00 90 1018.3
20260902100336 63 339 0.0 0.0 0.00 0.00 0.00 89 1018.7
20260902095831 63 346 0.0 0.0 0.00 0.00 0.00 89 1018.7
20260902095326 63 345 0.0 0.0 0.00 0.00 0.00 89 1018.3
20260902094825 63 344 0.0 0.0 0.00 0.00 0.00 89 1018.3
20260902094322 64 347 0.0 0.0 0.00 0.00 0.00 89 1018.3
20260902093821 64 347 0.0 0.0 0.00 0.00 0.00 89 1018.3
20260902093316 64 347 0.0 0.0 0.00 0.00 0.00 89 1018.3
20260902092815 64 341 0.0 0.0 0.00 0.00 0.00 88 1018.3
20260902092311 64 338 0.0 0.0 0.00 0.00 0.00 88 1018.3
20260902091811 64 343 0.0 0.0 0.00 0.00 0.00 88 1018.7
20260902091307 64 0 0.0 0.0 0.00 0.00 0.00 88 1018.3
20260902090803 64 358 0.0 0.0 0.00 0.00 0.00 88 1018.3
20260902090302 64 354 0.0 0.0 0.00 0.00 0.00 88 1018.3
20260902085801 65 352 0.0 0.0 0.00 0.00 0.00 88 1018.3
20260902085257 65 328 0.0 0.0 0.00 0.00 0.00 88 1018.0
20260902084753 65 355 0.0 0.0 0.00 0.00 0.00 88 1018.3
20260902084248 65 330 0.0 0.0 0.00 0.00 0.00 87 1018.3
20260902083744 65 357 0.0 0.9 0.00 0.00 0.00 87 1018.3
20260902083238 65 350 0.0 0.0 0.00 0.00 0.00 87 1018.3
20260902082733 65 36 0.9 0.9 0.00 0.00 0.00 87 1018.3
20260902082230 65 1 0.0 0.9 0.00 0.00 0.00 86 1018.7
20260902081726 65 27 0.9 1.7 0.00 0.00 0.00 86 1018.3
20260902081221 65 6 0.9 1.7 0.00 0.00 0.00 87 1018.7
20260902080716 65 358 0.9 1.7 0.00 0.00 0.00 87 1018.3
20260902080213 65 28 1.7 1.7 0.00 0.00 0.00 87 1018.3
20260902075712 65 24 0.0 1.7 0.00 0.00 0.00 87 1018.3
20260902075209 65 24 0.9 0.9 0.00 0.00 0.00 87 1018.3
20260902074708 65 3 0.0 0.0 0.00 0.00 0.00 86 1018.3
20260902074203 65 351 0.0 0.0 0.00 0.00 0.00 86 1018.3
20260902073659 65 1 0.0 0.0 0.00 0.00 0.00 86 1018.3
20260902073155 65 2 0.0 0.0 0.00 0.00 0.00 86 1018.3
20260902072651 65 3 0.0 0.0 0.00 0.00 0.00 86 1018.0
20260902072147 65 358 0.0 0.0 0.00 0.00 0.00 86 1018.0
20260902071642 65 358 0.0 0.0 0.00 0.00 0.00 86 1018.0
20260902071138 65 356 0.0 0.0 0.00 0.00 0.00 86 1018.0
20260902070634 65 352 0.0 0.0 0.00 0.00 0.00 86 1018.0
20260902070133 65 358 0.0 0.0 0.00 0.00 0.00 86 1018.0
20260902065632 65 340 0.0 0.0 0.00 0.00 0.00 86 1018.0
20260902065128 65 354 0.0 0.0 0.00 0.00 0.00 85 1018.0
20260902064623 65 354 0.0 0.0 0.00 0.00 0.00 85 1018.0
20260902064119 65 357 0.0 0.0 0.00 0.00 0.00 85 1018.0
20260902063614 65 353 0.0 0.0 0.00 0.00 0.00 85 1018.0
20260902063109 65 349 0.0 0.0 0.00 0.00 0.00 85 1018.0
20260902062607 66 351 0.0 0.0 0.00 0.00 0.00 84 1018.0
20260902062103 65 354 0.0 0.0 0.00 0.00 0.00 84 1018.0
20260902061603 66 341 0.0 0.0 0.00 0.00 0.00 83 1018.0
20260902061059 66 344 0.0 0.0 0.00 0.00 0.00 82 1017.6
20260902060555 66 343 0.0 0.0 0.00 0.00 0.00 82 1017.6
20260902060051 67 339 0.0 0.0 0.00 0.00 0.00 82 1018.0
20260902055546 67 336 0.0 0.0 0.00 0.00 0.00 82 1017.6
20260902055042 67 339 0.0 0.0 0.00 0.00 0.00 82 1017.6
20260902054537 66 333 0.0 0.0 0.00 0.00 0.00 82 1017.6
20260902054032 67 345 0.0 0.0 0.00 0.00 0.00 81 1017.6
20260902053527 67 341 0.0 0.0 0.00 0.00 0.00 82 1018.0
20260902053027 67 329 0.0 0.9 0.00 0.00 0.00 82 1017.6
20260902052521 66 337 0.0 0.9 0.00 0.00 0.00 83 1017.6
20260902052017 66 340 0.0 0.0 0.00 0.00 0.00 82 1017.6
20260902051517 66 347 0.0 0.0 0.00 0.00 0.00 82 1017.6
20260902051016 66 350 0.0 0.0 0.00 0.00 0.00 82 1017.6
20260902050510 66 354 0.0 0.0 0.00 0.00 0.00 82 1018.0
20260902050008 66 351 0.0 0.0 0.00 0.00 0.00 82 1017.6
20260902045501 66 324 0.0 0.0 0.00 0.00 0.00 81 1017.6
20260902044958 66 341 0.0 0.0 0.00 0.00 0.00 81 1017.6
20260902044452 66 350 0.0 0.0 0.00 0.00 0.00 81 1017.6
20260902043948 66 349 0.0 0.0 0.00 0.00 0.00 81 1017.6
20260902043443 66 353 0.0 0.0 0.00 0.00 0.00 81 1017.3
20260902042938 66 344 0.0 0.0 0.00 0.00 0.00 80 1017.3
20260902042437 66 343 0.0 0.0 0.00 0.00 0.00 80 1017.3
20260902041933 66 342 0.0 0.0 0.00 0.00 0.00 80 1017.3
20260902041427 67 338 0.0 0.0 0.00 0.00 0.00 80 1017.0
20260902040926 67 340 0.0 0.0 0.00 0.00 0.00 79 1017.3
20260902040421 67 343 0.0 0.0 0.00 0.00 0.00 79 1017.3
20260902035921 67 323 0.0 0.0 0.00 0.00 0.00 79 1017.0
20260902035416 68 339 0.0 0.0 0.00 0.00 0.00 78 1017.0
20260902034915 68 333 0.0 0.0 0.00 0.00 0.00 78 1017.0
20260902034410 68 338 0.0 0.0 0.00 0.00 0.00 78 1016.6
20260902033909 68 335 0.0 0.0 0.00 0.00 0.00 78 1017.0
20260902033403 68 334 0.0 0.0 0.00 0.00 0.00 77 1016.6
20260902032902 69 337 0.0 0.9 0.00 0.00 0.00 77 1017.0
20260902032356 69 323 0.0 0.9 0.00 0.00 0.00 76 1016.6
20260902031851 69 317 0.0 0.9 0.00 0.00 0.00 76 1016.6
20260902031347 69 301 0.9 0.9 0.00 0.00 0.00 75 1016.6
20260902030843 69 337 0.0 1.7 0.00 0.00 0.00 75 1016.6
20260902030337 69 308 1.7 2.6 0.00 0.00 0.00 75 1017.0
20260902025836 69 333 0.9 2.6 0.00 0.00 0.00 75 1016.6
20260902025332 69 304 1.7 1.7 0.00 0.00 0.00 75 1016.6
20260902024826 69 285 1.7 3.5 0.00 0.00 0.00 75 1016.6
20260902024322 69 291 0.9 2.6 0.00 0.00 0.00 75 1016.6
20260902023817 69 247 0.9 2.6 0.00 0.00 0.00 74 1016.3
20260902023313 70 285 0.9 2.6 0.00 0.00 0.00 73 1016.3
20260902022811 70 278 1.7 1.7 0.00 0.00 0.00 73 1016.6
20260902022307 70 328 0.0 1.7 0.00 0.00 0.00 72 1016.3
20260902021803 70 342 0.0 1.7 0.00 0.00 0.00 72 1016.3
20260902021257 70 274 0.0 0.9 0.00 0.00 0.00 72 1016.3
20260902020753 70 330 0.0 1.7 0.00 0.00 0.00 72 1016.0
20260902020249 70 284 1.7 3.5 0.00 0.00 0.00 73 1016.3
20260902015744 70 320 1.7 3.5 0.00 0.00 0.00 73 1016.6
20260902015240 70 197 1.7 3.5 0.00 0.00 0.00 75 1016.3
20260902014736 70 272 0.9 2.6 0.00 0.00 0.00 75 1016.6
20260902014233 70 343 0.0 2.6 0.00 0.00 0.00 75 1016.3
20260902013730 71 262 1.7 3.5 0.00 0.00 0.00 74 1016.3
20260902013226 71 318 1.7 5.2 0.00 0.00 0.00 74 1016.6
20260902012721 71 271 2.6 3.5 0.00 0.00 0.00 75 1016.6
20260902012218 71 307 0.0 2.6 0.00 0.00 0.00 75 1016.6
20260902011713 71 297 0.9 1.7 0.00 0.00 0.00 76 1016.6
20260902011212 71 220 1.7 5.2 0.00 0.00 0.00 75 1016.6
20260902010706 72 303 0.0 1.7 0.00 0.00 0.00 76 1016.6
20260902010202 72 289 1.7 3.5 0.00 0.00 0.00 75 1016.6
20260902005700 72 255 1.7 1.7 0.00 0.00 0.00 74 1016.6
20260902005156 72 310 1.7 3.5 0.00 0.00 0.00 74 1016.6
20260902004655 72 251 2.6 3.5 0.00 0.00 0.00 73 1016.6
20260902004150 73 56 1.7 6.1 0.00 0.00 0.00 73 1016.6
20260902003646 73 232 2.6 3.5 0.00 0.00 0.00 72 1016.6
20260902003142 73 222 3.5 5.2 0.00 0.00 0.00 72 1016.6
20260902002636 73 297 2.6 2.6 0.00 0.00 0.00 72 1016.6
20260902002131 73 308 1.7 2.6 0.00 0.00 0.00 72 1017.0
20260902001626 75 266 4.3 6.1 0.00 0.00 0.00 69 1017.0
20260902001121 75 255 1.7 2.6 0.00 0.00 0.00 70 1016.6
20260902000616 76 213 3.5 3.5 0.00 0.00 0.00 68 1016.6
20260902000111 75 251 0.9 3.5 0.00 0.00 0.00 69 1016.6
20260901235610 76 290 4.3 6.1 0.00 0.00 0.00 66 1017.0
20260901235106 75 317 3.5 3.5 0.00 0.00 0.00 69 1017.0
20260901234605 75 252 6.1 7.8 0.00 0.00 0.00 69 1016.6
20260901234100 76 252 3.5 5.2 0.00 0.00 0.00 68 1017.0
20260901233601 76 227 1.7 3.5 0.00 0.00 0.00 67 1017.0
20260901233057 76 324 2.6 2.6 0.00 0.00 0.00 67 1017.0
20260901232552 76 222 4.3 6.1 0.00 0.00 0.00 68 1017.0
20260901232047 75 329 1.7 2.6 0.00 0.00 0.00 68 1017.0
20260901231543 76 256 4.3 6.1 0.00 0.00 0.00 68 1017.3
20260901231039 76 212 1.7 2.6 0.00 0.00 0.00 67 1017.0
20260901230540 77 286 2.6 3.5 0.00 0.00 0.00 67 1017.0
20260901230034 77 195 2.6 6.1 0.00 0.00 0.00 67 1017.3
20260901225529 76 264 0.9 6.1 0.00 0.00 0.00 69 1017.0
20260901225029 76 272 1.7 7.8 0.00 0.00 0.00 68 1017.0
20260901224525 76 300 1.7 5.2 0.00 0.00 0.00 68 1017.0
20260901224021 75 320 0.9 5.2 0.00 0.00 0.00 68 1017.0
20260901223516 76 280 2.6 6.1 0.00 0.00 0.00 67 1017.3
20260901223012 77 289 2.6 3.5 0.00 0.00 0.00 67 1017.3
20260901222508 77 280 0.9 2.6 0.00 0.00 0.00 66 1017.3
20260901222004 77 267 3.5 7.0 0.00 0.00 0.00 66 1017.3
20260901221459 78 243 3.5 6.1 0.00 0.00 0.00 65 1017.0
20260901220954 78 234 3.5 6.1 0.00 0.00 0.00 64 1017.3
20260901220454 78 282 2.6 6.1 0.00 0.00 0.00 65 1017.3
20260901215952 77 284 0.9 3.5 0.00 0.00 0.00 65 1017.6
20260901215451 76 345 1.7 6.1 0.00 0.00 0.00 66 1017.3
20260901214950 77 197 3.5 6.1 0.00 0.00 0.00 64 1017.6
20260901214449 77 262 1.7 6.1 0.00 0.00 0.00 66 1017.6
20260901213944 77 289 1.7 3.5 0.00 0.00 0.00 64 1017.6
20260901213438 78 161 3.5 6.1 0.00 0.00 0.00 63 1017.6
20260901212938 78 224 1.7 5.2 0.00 0.00 0.00 64 1017.3
20260901212433 77 255 1.7 6.1 0.00 0.00 0.00 63 1017.6
20260901211930 78 244 3.5 5.2 0.00 0.00 0.00 61 1017.6
20260901211425 78 326 2.6 5.2 0.00 0.00 0.00 61 1017.6
20260901210921 77 214 2.6 3.5 0.00 0.00 0.00 61 1017.6
20260901210417 76 89 5.2 7.8 0.00 0.00 0.00 63 1017.6
20260901205913 78 257 3.5 7.0 0.00 0.00 0.00 61 1018.0
20260901205407 78 263 3.5 6.1 0.00 0.00 0.00 62 1017.6
20260901204902 79 246 2.6 5.2 0.00 0.00 0.00 61 1018.0
20260901204358 78 239 1.7 2.6 0.00 0.00 0.00 61 1018.0
20260901203858 78 148 1.7 3.5 0.00 0.00 0.00 63 1018.0
20260901203352 77 336 0.9 6.1 0.00 0.00 0.00 64 1018.0
20260901202847 77 234 2.6 6.1 0.00 0.00 0.00 64 1018.3
20260901202342 77 297 1.7 2.6 0.00 0.00 0.00 65 1018.0
20260901201839 76 258 3.5 5.2 0.00 0.00 0.00 67 1018.3
20260901201338 76 292 1.7 3.5 0.00 0.00 0.00 67 1018.3
20260901200832 76 187 2.6 3.5 0.00 0.00 0.00 67 1018.7
20260901200327 76 258 2.6 3.5 0.00 0.00 0.00 66 1018.3
20260901195826 77 307 1.7 5.2 0.00 0.00 0.00 67 1018.7
20260901195319 76 276 1.7 7.8 0.00 0.00 0.00 67 1018.3